Hurghada, Egypt

12:19 PM EET on July 26, 2017 (GMT +0200)
Hurghada

Weather History for HEGN - June, 2012

Change the Weather History Date:

Friday, June 15, 2012

  Actual Average Record
Temperature  
Mean Temperature 89 °F -  
Max Temperature 100 °F 94 °F 114 °F (2016)
Min Temperature 78 °F 79 °F 62 °F (2007)
Cooling Degree Days 24    
Growing Degree Days 39 (Base 50)    
Moisture  
Dew Point 58 °F    
Average Humidity 35    
Maximum Humidity 62    
Minimum Humidity 17    
Precipitation  
Precipitation 0.00 in - - ()
Sea Level Pressure  
Sea Level Pressure 29.67 in    
Wind  
Wind Speed 10 mph ()    
Max Wind Speed 17 mph    
Max Gust Speed -    
Visibility 6.0 miles    
Events      
Averages and records for this station are not official NWS values.
T = Trace of Precipitation, MM = Missing Value Source: Averaged Metar Reports

Daily Weather History Graph

Daily Weather History Graph

Search for Another Location

Airport or City:

Trip Planner

Search our weather history database for the weather conditions in past years. The results will help you decide how hot, cold, wet, or windy it might be!

Date:

Astronomy

Jun. 15, 2012 Rise Set
Actual Time 4:50 AM EET 6:41 PM EET
Civil Twilight 4:23 AM EET 7:07 PM EET
Nautical Twilight 3:52 AM EET 7:39 PM EET
Astronomical Twilight 3:18 AM EET 8:13 PM EET
Moon 1:39 AM EET (6/15) 3:12 PM EET (6/15)
Length of Visible Light 14h 43m
Length of Day
13h 50m
Waning Crescent, 15% of the Moon is Illuminated
Jun 15
Waning Crescent
Jun 19
New
Jun 27
First Quarter
Jul 3
Full
Jul 11
Last Quarter

Hourly Weather History & Observations

Time (EET) Temp. Heat Index Dew Point Humidity Pressure Visibility Wind Dir Wind Speed Gust Speed Precip Events Conditions
12:00 AM 86.0 °F - 51.8 °F 31% 29.65 in - WNW 11.5 mph - N/A   Clear
1:00 AM 84.2 °F - 51.8 °F 33% 29.65 in - WNW 13.8 mph - N/A   Clear
2:00 AM 83 °F - 51 °F 22% 29.67 in 6 mi NW 6.9 mph - -  
2:00 AM 84.2 °F - 50.0 °F 30% 29.65 in - NW 6.9 mph - N/A   Clear
3:00 AM 82.4 °F 81.4 °F 53.6 °F 37% 29.68 in - NW 15.0 mph - N/A   Clear
4:00 AM 82.4 °F 82.0 °F 57.2 °F 42% 29.68 in - North 11.5 mph - N/A   Clear
5:00 AM 82.4 °F 82.0 °F 57.2 °F 42% 29.68 in - North 13.8 mph - N/A   Clear
6:00 AM 82.4 °F 82.5 °F 59.0 °F 45% 29.71 in - NNW 13.8 mph - N/A   Clear
7:00 AM 86.0 °F 85.4 °F 59.0 °F 40% 29.71 in - NNW 12.7 mph - N/A   Clear
8:00 AM 88 °F - 57 °F 25% 29.73 in 6 mi North 17.3 mph - -  
8:00 AM 87.8 °F 86.5 °F 57.2 °F 35% 29.71 in - North 17.3 mph - N/A   Clear
9:00 AM 89.6 °F 88.9 °F 59.0 °F 36% 29.71 in - North 16.1 mph - N/A   Clear
10:00 AM 91.4 °F 89.9 °F 57.2 °F 31% 29.71 in - North 17.3 mph - N/A   Clear
11:00 AM 93.2 °F 92.6 °F 59.0 °F 32% 29.71 in - North 15.0 mph - N/A   Clear
12:00 PM 93.2 °F 91.9 °F 57.2 °F 30% 29.68 in - North 12.7 mph - N/A   Clear
1:00 PM 96.8 °F 95.1 °F 55.4 °F 25% 29.68 in - NNE 11.5 mph - N/A   Clear
2:00 PM 96 °F - 56 °F 17% 29.67 in 6 mi North 12.7 mph - -  
2:00 PM 96.8 °F 95.1 °F 55.4 °F 25% 29.65 in - North 12.7 mph - N/A   Clear
3:00 PM 98.6 °F 97.2 °F 55.4 °F 24% 29.65 in - NE 6.9 mph - N/A   Clear
4:00 PM 100.4 °F - 50.0 °F 18% 29.62 in - ENE 5.8 mph - N/A   Clear
5:00 PM 98.6 °F - 50.0 °F 19% 29.62 in - ESE 6.9 mph - N/A   Clear
6:00 PM 91.4 °F 91.4 °F 60.8 °F 36% 29.62 in - ESE 5.8 mph - N/A   Clear
7:00 PM 86.0 °F 90.4 °F 69.8 °F 58% 29.65 in - Calm Calm - N/A   Clear
8:00 PM 85 °F - 69 °F 50% 29.66 in 6 mi Calm Calm - -  
8:00 PM 84.2 °F 88.4 °F 69.8 °F 62% 29.65 in - Calm Calm - N/A   Clear
9:00 PM 84.2 °F 85.6 °F 64.4 °F 51% 29.65 in - Calm Calm - N/A   Clear
10:00 PM 87.8 °F 86.5 °F 57.2 °F 35% 29.68 in - North 4.6 mph - N/A   Clear
11:00 PM 82.4 °F 83.9 °F 64.4 °F 54% 29.65 in - NNW 4.6 mph - N/A   Clear